Location: Stockholm
(59.3330°N, 18.0500°E)
Time: 13:19:52
(UTC+01:00)

Envisat - Pass Details

Date: 04 December 2022
Orbit: 763 x 765 km, 98.2° (Epoch: 29 January)

Event Time Altitude Azimuth Distance (km) Brightness Sun altitude
Rises 06:17:38 0° 15° (NNE) 3,250 6.2 -14.1°
Reaches altitude 10° 06:20:22 10° 2° (N) 2,320 5.3 -13.8°
Maximum altitude 06:24:16 23° 312° (NW) 1,605 4.1 -13.3°
Enters shadow 06:26:13 18° 281° (W) 1,806 4.3 -13.1°
